[[{"header":{"parameterUnit":"m.s-1","parameterCategory":1,"la1":30.2991,"la2":30.254,"lo1":-89.0895,"lo2":-89.0444,"dy":0.0017,"dx":0.0017,"nx":28,"ny":28,"refTime":"2025-09-15T09:00:00:Z","depth":0,"parameterNumber":2,"parameterNumberName":"U-component_of_WINDS"},"data":[0,0,0,0,0,0,0,0,0,0,0,0,0,0,0,0,0,0,0,0,0,0,0,0,0,0,0,0,0,0,0,0,0,0,0,0,0,0,0,0,0,0,0,0,0,0,0,0,0,0,0,0,0,0,0,0,0,0,-0.6057,-0.6057,0,-0.6001,-0.6,-0.6,-0.5955,-0.5954,-0.5954,-0.5953,-0.5896,-0.5895,-0.5894,0,0,0,0,0,0,0,0,0,0,0,0,0,-0.6128,-0.6127,-0.6057,-0.6056,-0.6056,-0.6001,-0.6,-0.6,-0.5955,-0.5954,-0.5954,-0.5953,-0.5897,-0.5896,-0.5894,0,0,0,0,0,0,0,0,0,0,0,0,0,-0.6087,-0.6126,-0.6057,-0.6027,-0.6024,-0.6001,-0.6,-0.5999,-0.5955,-0.5954,-0.5954,-0.5953,-0.5897,-0.5896,-0.5894,-0.5897,0,0,-0.5889,-0.5888,0,0,0,0,0,0,0,0,-0.6089,-0.6084,-0.6032,-0.6029,-0.6025,-0.5984,-0.6004,-0.5965,-0.5955,-0.5981,-0.5953,-0.5953,-0.5926,-0.5922,-0.5913,-0.5895,-0.5892,-0.5889,-0.5888,-0.5887,-0.5887,0,0,0,0,0,0,0,-0.6092,-0.6087,-0.6035,-0.6031,-0.6027,-0.6017,-0.601,-0.5997,-0.5958,-0.5979,-0.5975,-0.5969,-0.5924,-0.5915,-0.5911,-0.5892,-0.5889,-0.5887,-0.5886,-0.5886,-0.5875,-0.5876,0,0,0,0,0,0,-0.6099,-0.6089,-0.6037,-0.6033,-0.6056,-0.6016,-0.6009,-0.5998,-0.5958,-0.5951,-0.597,-0.5967,-0.5918,-0.5913,-0.5909,-0.5912,-0.5887,-0.5886,-0.5885,-0.5875,-0.5876,-0.5876,0,0,0,0,0,0,-0.6101,-0.6095,-0.6039,-0.606,-0.6052,-0.6015,-0.6004,-0.5997,-0.5988,-0.5952,-0.5945,-0.5967,-0.5917,-0.5912,-0.5901,-0.5909,-0.5885,-0.5883,-0.5874,-0.5875,-0.5876,-0.5917,0,0,0,0,0,0,-0.6103,-0.6096,-0.6096,-0.6061,-0.6051,-0.6031,-0.6004,-0.5997,-0.5985,-0.5981,-0.5947,-0.5941,-0.5916,-0.5904,-0.59,-0.5907,-0.5882,-0.5873,-0.5874,-0.5876,-0.5915,-0.5919,-0.5923,0,0,0,0,0,-0.6106,-0.611,-0.6097,-0.6091,-0.6051,-0.6032,-0.6027,-0.5998,-0.5986,-0.5986,-0.5963,-0.5942,-0.5909,-0.5903,-0.5898,-0.5905,-0.5872,-0.5874,-0.5876,-0.5913,-0.5918,-0.5923,0,0,0,0,0,0,-0.6147,-0.6105,-0.6089,-0.6082,-0.6061,-0.6024,-0.6024,-0.6005,-0.5987,-0.5984,-0.595,-0.5942,-0.5936,-0.5919,-0.5913,-0.5907,-0.5888,-0.5889,-0.5918,-0.5923,-0.5927,-0.5932,-0.5881,0,0,0,0,0,-0.6156,-0.6143,-0.6107,-0.6103,-0.6094,-0.6061,-0.6051,-0.6031,-0.6009,-0.5999,-0.5975,-0.5954,-0.594,-0.593,-0.5914,-0.5912,-0.5905,-0.5914,-0.5918,-0.5922,-0.5923,-0.5922,-0.5927,-0.5882,-0.5882,-0.5882,0,0,-0.6173,-0.6148,-0.6142,-0.6111,-0.6093,-0.6081,-0.6054,-0.6042,-0.6034,-0.5998,-0.5987,-0.5969,-0.5943,-0.5937,-0.5933,-0.5923,-0.5934,-0.5924,-0.5927,-0.5926,-0.5924,-0.5929,-0.5933,-0.5883,-0.5882,-0.5882,0,0,-0.6198,-0.6177,-0.6173,-0.6155,-0.6128,-0.6106,-0.6105,-0.6072,-0.6059,-0.6047,-0.602,-0.601,-0.5984,-0.5968,-0.5956,-0.5977,-0.5957,-0.5973,-0.5995,-0.5995,-0.5998,-0.6001,-0.601,-0.6014,-0.5974,-0.5974,-0.5974,0,-0.6222,-0.6204,-0.6173,-0.6164,-0.6152,-0.6119,-0.6115,-0.61,-0.6069,-0.6061,-0.605,-0.6019,-0.5999,-0.599,-0.5995,-0.5986,-0.5985,-0.5977,-0.6,-0.6003,-0.6005,-0.6013,-0.6017,-0.5976,-0.5976,-0.5976,-0.5976,0,-0.6236,-0.6224,-0.6224,-0.6195,-0.6183,-0.6176,-0.6146,-0.6138,-0.6119,-0.6099,-0.6089,-0.6064,-0.6044,-0.604,-0.6021,-0.6028,-0.6023,-0.6007,-0.5987,-0.6012,-0.6019,-0.6022,-0.5979,-0.5979,-0.5978,-0.5977,0,0,-0.6285,-0.624,-0.6241,-0.6228,-0.6196,-0.6186,-0.6179,-0.6159,-0.6153,-0.6133,-0.6127,-0.6108,-0.6093,-0.6079,-0.6059,-0.6059,-0.6079,-0.6042,-0.6041,-0.6051,-0.6087,-0.61,-0.6104,-0.6066,-0.6066,-0.6066,-0.6089,0,-0.6306,-0.6291,-0.6264,-0.6258,-0.6247,-0.6216,-0.621,-0.619,-0.6172,-0.6161,-0.614,-0.6127,-0.6108,-0.61,-0.6098,-0.6077,-0.6086,-0.6075,-0.6061,-0.606,-0.6069,-0.6107,-0.6121,-0.6143,-0.6092,-0.6092,-0.6093,0,-0.6328,-0.631,-0.6303,-0.6273,-0.6268,-0.6263,-0.6243,-0.6232,-0.621,-0.6197,-0.6183,-0.6161,-0.6153,-0.6135,-0.6125,-0.6118,-0.6111,-0.61,-0.61,-0.6098,-0.6078,-0.6107,-0.615,-0.6154,-0.6096,-0.6096,-0.6096,0,-0.6366,-0.634,-0.6333,-0.6323,-0.6287,-0.6285,-0.627,-0.6247,-0.6237,-0.6221,-0.6214,-0.6197,-0.6187,-0.6175,-0.6149,-0.6138,-0.6142,-0.6122,-0.6132,-0.6133,-0.6134,-0.6134,-0.6177,-0.6129,-0.6128,-0.6128,-0.6128,0,-0.6392,-0.639,-0.635,-0.6346,-0.6342,-0.6312,-0.6309,-0.6292,-0.6272,-0.6264,-0.6237,-0.623,-0.6197,-0.6187,-0.6167,-0.6162,-0.6158,-0.6148,-0.6143,-0.615,-0.6152,-0.6146,-0.6144,-0.6129,-0.6129,-0.6129,-0.6129,0,-0.6434,-0.6407,-0.6398,-0.6365,-0.6357,-0.6356,-0.6329,-0.6324,-0.6305,-0.6296,-0.6292,-0.6261,-0.6248,-0.6222,-0.6201,-0.6188,-0.6189,-0.6179,-0.6196,-0.6193,-0.6205,-0.6205,-0.6246,-0.625,-0.6198,-0.6199,-0.6199,0,-0.6453,-0.6451,-0.6418,-0.6411,-0.6398,-0.6386,-0.6376,-0.6347,-0.6338,-0.6313,-0.6312,-0.6297,-0.6283,-0.6265,-0.6241,-0.6226,-0.6217,-0.6232,-0.6214,-0.6223,-0.6218,-0.6219,-0.6219,-0.6236,-0.6237,-0.6237,-0.6238,0,-0.6491,-0.6478,-0.6464,-0.6447,-0.6436,-0.642,-0.6404,-0.64,-0.6367,-0.6358,-0.6345,-0.6334,-0.6314,-0.63,-0.6282,-0.6268,-0.6248,-0.6244,-0.6246,-0.6254,-0.6265,-0.626,-0.6208,-0.6243,-0.6242,-0.6242,-0.6242,-0.6242,-0.6522,-0.6519,-0.6496,-0.6482,-0.6467,-0.6452,-0.6447,-0.6426,-0.6415,-0.6396,-0.6379,-0.6368,-0.6347,-0.6321,-0.6308,-0.6299,-0.6289,-0.6292,-0.6292,-0.6294,-0.6298,-0.6266,-0.6296,-0.6296,-0.6295,-0.6295,-0.6295,0,-0.6559,-0.6543,-0.6531,-0.6508,-0.6498,-0.648,-0.6461,-0.6454,-0.6444,-0.6426,-0.6414,-0.6399,-0.6386,-0.6362,-0.6347,-0.6345,-0.6336,-0.6342,-0.6342,-0.634,-0.6307,-0.6307,-0.635,-0.635,-0.635,-0.635,-0.635,-0.635,-0.6577,-0.6571,-0.6556,-0.6542,-0.6526,-0.6514,-0.6505,-0.6492,-0.6478,-0.6463,-0.6452,-0.6436,-0.6416,-0.64,-0.6387,-0.6381,-0.6377,-0.6387,-0.6378,-0.6347,-0.6342,-0.6337,-0.6337,-0.6386,-0.6386,-0.6411,-0.6412,-0.6412]},{"header":{"parameterUnit":"m.s-1","parameterCategory":1,"la1":30.2991,"la2":30.254,"lo1":-89.0895,"lo2":-89.0444,"dy":0.0017,"dx":0.0017,"nx":28,"ny":28,"refTime":"2025-09-15T09:00:00:Z","depth":0,"parameterNumber":3,"parameterNumberName":"V-component_of_WINDS"},"data":[0,0,0,0,0,0,0,0,0,0,0,0,0,0,0,0,0,0,0,0,0,0,0,0,0,0,0,0,0,0,0,0,0,0,0,0,0,0,0,0,0,0,0,0,0,0,0,0,0,0,0,0,0,0,0,0,0,0,3.1227,3.1226,0,3.1165,3.1165,3.1164,3.1167,3.1167,3.1168,3.1169,3.1101,3.1099,3.1096,0,0,0,0,0,0,0,0,0,0,0,0,0,3.1342,3.134,3.1227,3.1226,3.1225,3.1165,3.1165,3.1164,3.1166,3.1167,3.1169,3.117,3.1102,3.1099,3.1096,0,0,0,0,0,0,0,0,0,0,0,0,0,3.1287,3.1339,3.1227,3.1219,3.1218,3.1166,3.1164,3.1163,3.1166,3.1167,3.1169,3.117,3.1103,3.1099,3.1095,3.1045,0,0,3.1083,3.1082,0,0,0,0,0,0,0,0,3.129,3.1283,3.1221,3.122,3.1218,3.1175,3.118,3.1123,3.1166,3.1186,3.1169,3.1171,3.1124,3.1119,3.1104,3.1041,3.1039,3.1083,3.1081,3.1079,3.1078,0,0,0,0,0,0,0,3.1294,3.1285,3.1202,3.122,3.1219,3.1218,3.1211,3.1169,3.1148,3.1184,3.1184,3.1177,3.1124,3.1108,3.1103,3.1038,3.1083,3.108,3.1077,3.1076,3.0929,3.0927,0,0,0,0,0,0,3.13,3.1289,3.1204,3.12,3.1258,3.1215,3.1208,3.1187,3.1149,3.1144,3.1176,3.1178,3.1114,3.1107,3.11,3.1037,3.1079,3.1075,3.1073,3.093,3.0928,3.0927,0,0,0,0,0,0,3.1302,3.1292,3.1207,3.1245,3.1234,3.1211,3.1189,3.1186,3.117,3.1143,3.1138,3.1164,3.1115,3.1106,3.1059,3.1035,3.1074,3.107,3.0932,3.093,3.0928,3.0911,0,0,0,0,0,0,3.1306,3.1293,3.1275,3.1244,3.1232,3.1167,3.1187,3.1183,3.1164,3.1165,3.113,3.1126,3.1115,3.1064,3.1055,3.103,3.1067,3.0934,3.0931,3.0928,3.0914,3.0908,3.0904,0,0,0,0,0,3.131,3.1272,3.1274,3.1264,3.1208,3.1166,3.1159,3.1148,3.1162,3.1142,3.1125,3.1127,3.104,3.106,3.1049,3.1022,3.0935,3.0932,3.0929,3.0916,3.0909,3.0904,0,0,0,0,0,0,3.1298,3.1268,3.127,3.1221,3.1196,3.1167,3.1141,3.1142,3.1112,3.1114,3.1102,3.1094,3.1046,3.103,3.1053,3.0971,3.0989,3.0983,3.0983,3.0977,3.0972,3.0976,3.1064,0,0,0,0,0,3.1291,3.1261,3.1235,3.1194,3.1182,3.1164,3.1145,3.114,3.1113,3.1102,3.1081,3.1054,3.102,3.0998,3.0965,3.0912,3.0903,3.0888,3.0884,3.088,3.0874,3.0844,3.0836,3.0915,3.0915,3.0915,0,0,3.1273,3.1253,3.1234,3.1191,3.1171,3.1139,3.1155,3.112,3.1095,3.1096,3.105,3.1034,3.1002,3.0952,3.0928,3.0936,3.0851,3.0876,3.0873,3.0869,3.0839,3.0832,3.0825,3.0913,3.0913,3.0914,0,0,3.1225,3.1207,3.1171,3.1151,3.1122,3.111,3.1102,3.1072,3.1062,3.1016,3.1016,3.0985,3.0928,3.0905,3.0886,3.083,3.083,3.082,3.0794,3.0764,3.0758,3.0752,3.073,3.0723,3.0815,3.0815,3.0814,0,3.1207,3.1159,3.1152,3.1117,3.1097,3.1099,3.1061,3.1041,3.1002,3.0988,3.0998,3.0926,3.0905,3.0848,3.0835,3.082,3.0808,3.0822,3.076,3.0754,3.0749,3.0728,3.072,3.0813,3.0813,3.0814,3.0814,0,3.1137,3.1104,3.1078,3.1042,3.1019,3.0983,3.0969,3.0947,3.0943,3.093,3.0883,3.0858,3.082,3.0807,3.0803,3.0749,3.0755,3.0763,3.078,3.074,3.072,3.0712,3.0812,3.0812,3.0812,3.0813,0,0,3.1078,3.1039,3.103,3.1013,3.0981,3.0954,3.0917,3.0882,3.0863,3.0836,3.0803,3.0755,3.0762,3.074,3.0734,3.0708,3.0663,3.0719,3.0718,3.0708,3.0601,3.0594,3.0585,3.0664,3.0663,3.0661,3.0603,0,3.1025,3.0962,3.0954,3.0897,3.0865,3.0866,3.0834,3.081,3.0797,3.0767,3.0752,3.0717,3.073,3.0717,3.0692,3.0674,3.0641,3.0678,3.0631,3.063,3.0638,3.0574,3.0567,3.0513,3.0595,3.0594,3.0593,0,3.0955,3.0927,3.0867,3.0839,3.0825,3.0797,3.0763,3.0735,3.0708,3.07,3.0676,3.0673,3.0633,3.0654,3.0598,3.0624,3.0604,3.0593,3.059,3.0584,3.0608,3.0564,3.0495,3.0487,3.0581,3.0582,3.0583,0,3.0915,3.0863,3.082,3.0806,3.0773,3.0752,3.0737,3.0711,3.069,3.0661,3.0647,3.0613,3.0593,3.0566,3.0553,3.057,3.0498,3.0518,3.0488,3.0488,3.0471,3.0472,3.0396,3.0462,3.0462,3.0462,3.0462,0,3.0856,3.0818,3.0803,3.0776,3.0734,3.0725,3.0683,3.0668,3.0645,3.0614,3.0614,3.0584,3.057,3.0538,3.0528,3.0483,3.0474,3.0465,3.0463,3.0464,3.0465,3.045,3.0453,3.046,3.0461,3.0461,3.0461,0,3.0804,3.0792,3.0745,3.0718,3.0711,3.068,3.0656,3.0629,3.0618,3.0579,3.0569,3.0549,3.0512,3.0497,3.0451,3.0444,3.0391,3.0392,3.04,3.0399,3.0369,3.0372,3.0279,3.0266,3.0343,3.0342,3.0341,0,3.0766,3.0738,3.0708,3.0688,3.0673,3.0641,3.062,3.061,3.0588,3.0554,3.0531,3.0494,3.0464,3.0404,3.0384,3.0349,3.0348,3.0318,3.0343,3.0345,3.0345,3.0347,3.0343,3.0313,3.0312,3.0312,3.0311,0,3.0699,3.0695,3.0665,3.0634,3.0609,3.0583,3.0558,3.0541,3.0528,3.0503,3.0465,3.0442,3.0396,3.0358,3.0322,3.0305,3.0305,3.0304,3.0295,3.0295,3.0301,3.0296,3.0386,3.0306,3.0306,3.0307,3.0307,3.0307,3.0651,3.0626,3.0601,3.0568,3.0548,3.0525,3.0498,3.0484,3.0453,3.0415,3.0411,3.0371,3.0343,3.0295,3.0276,3.0243,3.025,3.0238,3.0234,3.023,3.0228,3.0308,3.0236,3.0236,3.0237,3.0237,3.0237,0,3.0583,3.0567,3.0537,3.0503,3.0476,3.0481,3.0454,3.0431,3.0395,3.0371,3.0342,3.0298,3.0262,3.024,3.0204,3.0181,3.018,3.0172,3.0172,3.0168,3.0224,3.0235,3.0173,3.0173,3.0173,3.0173,3.0173,3.0173,3.0544,3.05,3.0493,3.0439,3.0424,3.0385,3.0369,3.0346,3.0327,3.0278,3.0249,3.0236,3.0212,3.0173,3.014,3.0135,3.012,3.0111,3.0105,3.0157,3.0164,3.017,3.018,3.0108,3.0108,3.0052,3.0051,3.0051]}]]